Volver al catálogo

STARLINK-34739

ActivoComunicacionesSSO
NORAD 65066·PAYLOAD·🇺🇸 United States

Lanzado Jul 31, 2025 desde Vandenberg Space Force Base

Loading…

Próximos Pases (próximas 24 horas)

TLE

ActualizadoSource: CelesTrak SupGP

Época: Sep 15, 2026, 03:35 UTC

1 65066C 25165L   26258.14979167  .00063806  00000+0  38782-2 0  2589
2 65066  97.2848 329.4503 0001586  84.0451 343.6904 15.10525376    16

Sigue STARLINK-34739 en tiempo real con AllMySat

Download on the App Store